Date String (YYYY-MM-DD hh:mm:ss) UTC,Instrument flags,Ambient pressure (hPa),Sample flow (lpm),Bypass flow (lpm),Sample temperature (°C),Ambient temperature (°C),ASC tube jacket temperature (°C),LED temperature (°C),Box temperature (°C),Sample RH (%),Span deviation,Mass concentration (μg/m³),Mass concentration (μg/m³),Mass concentration (μg/m³)
DateTimeUTC,F1_M11,P_M11,Q1_M11,Q2_M11,T1_M11,T2_M11,T3_M11,T4_M11,T5_M11,U1_M11,ZSPAN_M11,X0_M11,X2_M11,X1_M11
2023-05-16 05:00:00,,0837.2,5.00,0.00,28.3,27.0,00.0,36.6,30.0,28.2,0000.0,0008.32,0004.68,0004.28
2023-05-16 05:01:00,,0837.2,5.00,0.00,28.4,27.0,00.0,36.6,30.0,28.2,0000.0,0008.90,0004.69,0004.28
2023-05-16 05:02:00,,0837.2,5.00,0.00,28.4,27.0,00.0,36.7,30.0,28.1,0000.0,0009.61,0004.79,0004.30
2023-05-16 05:03:00,,0837.2,5.01,0.00,28.4,27.0,00.0,36.7,30.0,28.0,0000.0,0009.91,0004.77,0004.25
2023-05-16 05:04:00,,0837.2,5.00,0.00,28.4,27.0,00.0,36.7,30.0,27.9,0000.0,0010.61,0004.76,0004.21
2023-05-16 05:05:00,,0837.2,5.01,0.00,28.4,27.0,00.0,36.7,30.0,27.9,0000.0,0010.90,0004.82,0004.22
2023-05-16 05:06:00,,0837.2,4.98,0.00,28.4,27.0,00.0,36.7,30.1,27.8,0000.0,0011.45,0004.83,0004.21
2023-05-16 05:07:00,,0837.2,5.00,0.00,28.4,27.1,00.0,36.7,30.1,27.7,0000.0,0011.33,0004.79,0004.19
2023-05-16 05:08:00,,0837.2,5.01,0.00,28.5,27.0,00.0,36.7,30.1,27.6,0000.0,0011.29,0004.73,0004.16
2023-05-16 05:09:00,,0837.2,5.00,0.00,28.4,27.0,00.0,36.7,30.1,27.5,0000.0,0011.24,0004.68,0004.12
2023-05-16 05:10:00,,0837.2,4.98,0.00,28.4,27.0,00.0,36.7,30.1,27.5,0000.0,0010.72,0004.60,0004.06
2023-05-16 05:11:00,,0837.2,5.01,0.00,28.4,26.9,00.0,36.7,30.1,27.5,0000.0,0010.55,0004.51,0004.00
2023-05-16 05:12:00,,0837.2,5.00,0.00,28.4,26.9,00.0,36.8,30.1,27.5,0000.0,0010.21,0004.45,0003.94
2023-05-16 05:13:00,,0837.2,4.98,0.00,28.5,27.0,00.0,36.8,30.1,27.5,0000.0,0009.40,0004.35,0003.89
2023-05-16 05:14:00,,0837.2,5.01,0.00,28.5,27.0,00.0,36.8,30.1,27.5,0000.0,0008.93,0004.28,0003.86
2023-05-16 05:15:00,,0837.3,5.01,0.00,28.5,27.0,00.0,36.8,30.1,27.5,0000.0,0008.46,0004.28,0003.85
2023-05-16 05:16:00,,0837.2,5.00,0.00,28.5,27.0,00.0,36.8,30.1,27.4,0000.0,0008.04,0004.25,0003.83
2023-05-16 05:17:00,,0837.2,4.99,0.00,28.5,27.1,00.0,36.8,30.1,27.2,0000.0,0007.43,0004.14,0003.79
2023-05-16 05:18:00,,0837.2,5.00,0.00,28.5,27.1,00.0,36.8,30.1,27.1,0000.0,0006.70,0004.10,0003.76
2023-05-16 05:19:00,,0837.2,5.00,0.00,28.5,27.1,00.0,36.8,30.1,27.1,0000.0,0006.29,0004.10,0003.75
2023-05-16 05:20:00,,0837.2,5.00,0.00,28.5,27.1,00.0,36.8,30.2,27.0,0000.0,0006.15,0004.09,0003.74
2023-05-16 05:21:00,,0837.2,5.00,0.00,28.5,27.1,00.0,36.8,30.2,26.8,0000.0,0006.12,0004.09,0003.73
2023-05-16 05:22:00,,0837.2,5.00,0.00,28.5,27.1,00.0,36.8,30.2,26.9,0000.0,0006.35,0004.07,0003.72
2023-05-16 05:23:00,,0837.2,5.00,0.00,28.6,27.1,00.0,36.8,30.2,27.2,0000.0,0006.64,0004.07,0003.72
2023-05-16 05:24:00,,0837.2,5.00,0.00,28.6,27.1,00.0,36.9,30.2,27.2,0000.0,0006.50,0004.03,0003.71
2023-05-16 05:25:00,,0837.2,4.99,0.00,28.6,27.1,00.0,36.9,30.2,27.2,0000.0,0006.36,0004.00,0003.70
2023-05-16 05:26:00,,0837.2,5.00,0.00,28.6,27.1,00.0,36.9,30.2,27.2,0000.0,0006.22,0003.96,0003.69
2023-05-16 05:27:00,,0837.2,5.01,0.00,28.6,27.2,00.0,36.9,30.2,27.2,0000.0,0006.19,0003.95,0003.70
2023-05-16 05:28:00,,0837.2,4.99,0.00,28.6,27.2,00.0,36.9,30.2,27.2,0000.0,0006.55,0004.00,0003.72
2023-05-16 05:29:00,,0837.2,5.00,0.00,28.6,27.2,00.0,36.9,30.2,27.2,0000.0,0006.76,0004.04,0003.75
2023-05-16 05:30:00,,0837.2,5.00,0.00,28.6,27.2,00.0,36.9,30.2,27.2,0000.0,0006.75,0004.04,0003.78
2023-05-16 05:31:00,,0837.2,5.01,0.00,28.6,27.2,00.0,36.9,30.2,27.1,0000.0,0007.31,0004.07,0003.81
2023-05-16 05:32:00,,0837.2,5.00,0.00,28.6,27.2,00.0,36.9,30.3,27.1,0000.0,0008.21,0004.10,0003.83
2023-05-16 05:33:00,,0837.2,5.00,0.00,28.6,27.2,00.0,36.9,30.3,27.1,0000.0,0008.33,0004.15,0003.87
2023-05-16 05:34:00,,0837.2,4.98,0.00,28.6,27.2,00.0,36.9,30.2,27.1,0000.0,0008.19,0004.18,0003.89
2023-05-16 05:35:00,,0837.2,5.00,0.00,28.7,27.2,00.0,36.9,30.3,27.1,0000.0,0008.23,0004.21,0003.92
2023-05-16 05:36:00,,0837.2,5.01,0.00,28.7,27.2,00.0,36.9,30.3,27.2,0000.0,0008.26,0004.24,0003.94
2023-05-16 05:37:00,,0837.2,5.01,0.00,28.7,27.2,00.0,37.0,30.3,27.1,0000.0,0008.33,0004.28,0003.96
2023-05-16 05:38:00,,0837.2,4.97,0.00,28.7,27.2,00.0,37.0,30.3,27.1,0000.0,0008.35,0004.30,0003.98
2023-05-16 05:39:00,,0837.2,5.01,0.00,28.7,27.2,00.0,37.0,30.3,27.0,0000.0,0008.31,0004.32,0004.01
2023-05-16 05:40:00,,0837.2,5.01,0.00,28.7,27.2,00.0,37.0,30.3,27.0,0000.0,0008.24,0004.33,0004.03
2023-05-16 05:41:00,,0837.2,5.00,0.00,28.7,27.2,00.0,37.0,30.3,27.1,0000.0,0008.19,0004.34,0004.05
2023-05-16 05:42:00,,0837.2,4.99,0.00,28.7,27.3,00.0,37.0,30.3,27.1,0000.0,0008.02,0004.38,0004.09
2023-05-16 05:43:00,,0837.2,5.00,0.00,28.7,27.3,00.0,37.0,30.3,27.1,0000.0,0007.54,0004.44,0004.12
2023-05-16 05:44:00,,0837.1,5.01,0.00,28.7,27.3,00.0,37.0,30.3,27.1,0000.0,0008.07,0004.48,0004.14
2023-05-16 05:45:00,,0837.1,5.00,0.00,28.7,27.3,00.0,37.0,30.3,27.1,0000.0,0008.20,0004.48,0004.15
2023-05-16 05:46:00,,0837.1,4.99,0.00,28.7,27.3,00.0,37.0,30.3,27.1,0000.0,0008.25,0004.50,0004.17
2023-05-16 05:47:00,,0837.1,5.02,0.00,28.7,27.3,00.0,37.0,30.3,27.1,0000.0,0008.31,0004.50,0004.16
2023-05-16 05:48:00,,0837.1,4.99,0.00,28.7,27.3,00.0,37.0,30.3,27.1,0000.0,0008.29,0004.48,0004.14
2023-05-16 05:49:00,,0837.1,4.98,0.00,28.7,27.3,00.0,37.0,30.3,27.1,0000.0,0008.30,0004.47,0004.13
2023-05-16 05:50:00,,0837.1,5.01,0.00,28.8,27.2,00.0,37.0,30.3,27.1,0000.0,0008.28,0004.45,0004.11
2023-05-16 05:51:00,,0837.1,5.00,0.00,28.8,27.2,00.0,37.1,30.3,27.2,0000.0,0008.74,0004.47,0004.09
2023-05-16 05:52:00,,0837.1,5.01,0.00,28.7,27.2,00.0,37.1,30.3,27.2,0000.0,0009.20,0004.48,0004.07
2023-05-16 05:53:00,,0837.0,4.99,0.00,28.7,27.2,00.0,37.1,30.3,27.1,0000.0,0009.40,0004.45,0004.04
2023-05-16 05:54:00,,0837.0,4.99,0.00,28.7,27.2,00.0,37.1,30.3,27.1,0000.0,0009.67,0004.39,0004.00
2023-05-16 05:55:00,,0837.0,5.00,0.00,28.7,27.2,00.0,37.1,30.3,27.2,0000.0,0009.02,0004.34,0003.96
2023-05-16 05:56:00,,0837.1,5.00,0.00,28.7,27.2,00.0,37.1,30.3,27.1,0000.0,0008.98,0004.33,0003.94
2023-05-16 05:57:00,,0837.0,5.00,0.00,28.7,27.1,00.0,37.1,30.3,27.1,0000.0,0008.98,0004.32,0003.92
2023-05-16 05:58:00,,0837.0,4.99,0.00,28.7,27.1,00.0,37.1,30.3,27.1,0000.0,0008.94,0004.31,0003.91
2023-05-16 05:59:00,,0837.0,5.01,0.00,28.7,27.1,00.0,37.1,30.3,27.1,0000.0,0008.95,0004.32,0003.92
